Flag for Japan Weather past 2 weeks in Fukushima, Japan

Now
29 °F

Fog.


Feels Like: 29 °F
Forecast: 19 / 43 °F
Wind: 2 mph from Southeast

Location: Wakamatsu

Current Time: Dec 19, 2014 at 7:30:46 PM

Latest Report: Dec 19, 2014 at 6:00 PM


Visibility: 1 mi

Pressure: 30.49 "Hg

Humidity: 96%

Dew point: 28 °F

Location of FukushimaLocation

Historic Weather in Fukushima — Graph

°F

Fukushima temperature yesterday

Maximum temperature yesterday: 33 °F (at 10:00 AM)
Minimum temperature yesterday: 25 °F (at 1:00 AM)
Average temperature yesterday: 30 °F

Past Weeks' High & Low Weather Summary

 TemperatureHumidityPressure
High43 °F (Dec 10, 12:00 PM)97% (Dec 8, 6:00 AM)30.49 "Hg (Dec 8, 6:00 AM)
Low22 °F (Dec 16, 5:00 AM)55% (Dec 10, 2:00 PM)29.35 "Hg (Dec 16, 10:00 PM)
Average32 °F87%30.03 "Hg
* Reported Dec 4 6:00 PM — Dec 19 6:00 PM, Fukushima, Weather by CustomWeather, © 2014

Note: Actual official high and low records may vary slightly from our data, if they occured in-between our weather recording intervals... More about our weather records

Advertising

Fukushima weather history for previous 24 hours

 ConditionsComfort  
Time TempWeatherWind HumidityBarometerVisibility
6:00 PM
Dec 19
29 °FFog.2 mph96%30.49 "Hg1 mi
5:00 PM31 °FFog.3 mph94%30.48 "Hg4 mi
4:00 PM32 °FChilly.2 mph91%30.45 "Hg7 mi
3:00 PM36 °FChilly.2 mph75%30.44 "Hg12 mi
2:00 PM35 °FChilly.5 mph80%30.45 "Hg12 mi
1:00 PM37 °FChilly.2 mph73%30.45 "Hg12 mi
11:00 AM35 °FChilly.3 mph77%30.46 "Hg12 mi
10:00 AM32 °FChilly.2 mph81%30.49 "Hg12 mi
9:00 AM30 °FChilly.2 mph85%30.49 "Hg12 mi
8:00 AM28 °FChilly.3 mph87%30.48 "Hg12 mi
7:00 AM27 °FChilly.3 mph92%30.46 "Hg12 mi
6:00 AM28 °FChilly.2 mph90%30.43 "Hg12 mi
5:00 AM30 °FChilly.5 mph82%30.40 "Hg12 mi
4:00 AM29 °FLight snow. Overcast.3 mph89%30.38 "Hg12 mi
3:00 AM30 °FChilly.6 mph79%30.36 "Hg12 mi
2:00 AM29 °FChilly.3 mph90%30.34 "Hg12 mi
1:00 AM31 °FLight snow. Overcast.5 mph93%30.32 "Hg5 mi
12:00 AM31 °FLight snow. Overcast.5 mph93%30.29 "Hg12 mi
11:00 PM
Dec 18
31 °FLight snow. Overcast.6 mph85%30.27 "Hg12 mi
10:00 PM31 °FLight snow. Overcast.8 mph87%30.25 "Hg12 mi
9:00 PM31 °FLight snow. Overcast.10 mph90%30.22 "Hg2 mi
8:00 PM31 °FLight snow. Overcast.12 mph90%30.19 "Hg2 mi
7:00 PM32 °FChilly.10 mph78%30.16 "Hg12 mi
Weather by CustomWeather, © 2014

See weather overviewHow to use our weather pages